ATLAS 5 CENTAUR DEB, 43967

Orbit data source: Space-Track

ATLAS 5 CENTAUR DEB, 43967 is space debris in HEO originally from a launch on Wed, 17 Sep 2014 UTC launched from the Air Force Eastern Test Range (AFETR). Debris objects in space refer to the collection of defunct objects orbiting the Earth. Examples of debris include non-operational satellites, rocket bodies, and fragments generated from explosions, collisions, or faulty payload assembly.

Loading next visibility...
Identifier
43967, 2014-055W
Orbit
HEO
Country
Flag of USUS
Related business
Flag of USUnited Launch Alliance/Lockheed Martin (US)
Manufacturer
Unknown
Mission
Spacecraft
Bus & Motor
Unknown
Mass
Unknown
Launch date (UTC)
2014-09-17 (11 years ago)
Launch vehicle
Unknown
Launch site
Air Force Eastern Test Range (AFETR)
Object type
Payload
Rocket body
Debris
Shape & HBR
Unknown shape, 1.1 m
Radar Cross Section
Medium (>0.1 m² and <1 m²)

Expand to show TLE details & history
Last TLE update: 1 day ago

TLE from 1 day ago
0 ATLAS 5 CENTAUR DEB
1 43967U 14055W   25347.53981485 -.00000027  00000-0  00000-0 0  9998
2 43967  19.8999 152.2743 5079416 147.9364 256.8875  1.82857658 48605
Epoch: 2025-12-13T12:57Z
TLE epoch observation values (Epoch: 2025-12-13T12:57:20.003Z)
Latitude
-0.00003°
Longitude
-124.5084°
Altitude
30,387.307 km
Speed
2.752 km/s
True Right ascension
10h 09m 09s
True Declination
0° 00' 00"
Sunlit
Object was in daylight at epoch
Visualization orbit readout
Latitude
Unknown
Longitude
Unknown
Altitude
Unknown
Speed
Unknown
Apparent Right ascension
Unknown
Apparent Declination
Unknown
Sunlit
N/A
Visualization observer readout
Local Sidereal Time
19:18:57
Azimuth
Unknown
Elevation
Unknown
Doppler factor
Unknown
Orbital elements
Apogee altitude
36,221.789 km
Perigee altitude
7,522.701 km
Semi-major axis
28,250.382 km
Eccentricity
0.50794
Inclination
19.8999°
RAAN
152.2743°
Arg. of periapsis
147.9364°
True anomaly
212.12148°
Mean anomaly
256.8875°
Eccentric anomaly
233.49457°
Mean motion
0.4571 °/min
Orbital period
787.58 mins
BSTAR
0
Loading maneuver chart data...
Computing Atmospheric mass density...

Documentation

Showing up to 5 results
|